STARLINK-1691

decayed
NORAD ID: 46373 Int'l Des: 2020-062 Owner: SPXS Country: US Constellation: starlink
LEOCIRCULAR
Gruppe

Über STARLINK-1691

Beschreibung wird geladen...

Höhenverlauf

Altitude vs Time

uPlot chart will show altitude changes over time

Zweizeiliger Elementsatz

1 46373U 20062BA 21229.46356932 .57479253 12924-4 48391-3 0 9999
2 46373 53.0406 233.4740 0024998 41.4098 81.2348 16.49810577 54311
Epoch: 17. Aug. 2021 • Age: 35754 hours

Aktueller Status

Position data unavailable
Startdatum 3. Sept. 2020
Alter 5 years
Verglühungsdatum 17. Aug. 2021
Typ internet

Technische Details

Klassifizierung Payload
Masse 260.00 kg
Trockenmasse 248.00 kg
Gesamtmasse 260.00 kg
Länge 0.20 m
Durchmesser 2.80 m
Spannweite 9.00 m
Form Box + pan
Hersteller SPXS
Bus-Typ Starlink
Phasenstatus Reentered
Besitzer/Staat SPXS/US

Große Konstellationen

Loading constellations...